Regional Weather Roundup
Issued by NWS

Home | Current Version | Previous Version | Graphics & Text | Print | Product List | Glossary On
Versions: 1 2 3 4 5 6 7 8 9 10 11 12 13 14 15 16 17 18 19 20 21 22 23 24 25 26 27 28 29 30 31 32 33 34 35 36 37 38 39 40 41 42 43 44 45 46 47 48 49 50
000
ASUS43 KIND 152209
RWRIN

WEATHER ROUNDUP FOR INDIANA
NATIONAL WEATHER SERVICE INDIANAPOLIS IN
600 PM EDT MON SEP 15 2014

NOTE: "FAIR" INDICATES FEW OR NO CLOUDS BELOW 12,000 FEET WITH NO
SIGNIFICANT WEATHER AND/OR OBSTRUCTIONS TO VISIBILITY.

* - STATION DOES NOT REPORT WEATHER SUCH AS PRECIPITATION OR FOG.

+ - STATION NOT QUALITY CONTROLLED BY THE NATIONAL WEATHER SERVICE.
    USE DATA WITH CAUTION...ESPECIALLY DEWPOINT AND RELATIVE
    HUMIDITY OBSERVATIONS.

INZ001>003-010>013-019-020-152300-
NORTHWEST INDIANA

CITY           SKY/WX    TMP DP  RH WIND       PRES   REMARKS
GARY /AIRPORT/ LGT RAIN  57  54  88 CALM      30.10R
KNOX *+        CLOUDY    54  52  91 CALM      30.09F
LA PORTE +     CLOUDY    55  53  95 SW5       30.11R
MICHIGAN CITY+ CLOUDY    54  52  94 SW5       30.10S
MONTICELLO +   CLOUDY    57  55  95 CALM      30.08R
RENSSELAER +   HVY RAIN  55  55 100 CALM      30.10R
VALPARAISO     CLOUDY    55  53  93 CALM      30.09F

$$

LMZ046-743>745-152300-
SOUTHERN LAKE MICHIGAN

STATION/POSITION TIME  TEMP WIND        PRES
                       AIR  DIR/SP/G
                 (UTC) (F)  (DEG/KT/KT) (MB)
MICHIGAN CITY    2200   56  200/  7/  8   N/A

$$

INZ004-005-014>016-021>024-152300-
NORTH CENTRAL INDIANA

CITY           SKY/WX    TMP DP  RH WIND       PRES   REMARKS
ELKHART        LGT RAIN  55  54  94 SW3       30.10R
GOSHEN         LGT RAIN  56  53  90 NW5       30.09R FOG
LOGANSPORT +   CLOUDY    55  54  94 N3        30.10R
PERU/GRISSOM   CLOUDY    58  58 100 SW2       30.08S
ROCHESTER +    LGT RAIN  57  55  94 CALM      30.10S
SOUTH BEND     CLOUDY    56  53  90 W6        30.11R
WARSAW +       RAIN      54  54 100 W3        30.10R

$$

INZ006>009-017-018-025>027-152300-
NORTHEAST INDIANA

CITY           SKY/WX    TMP DP  RH WIND       PRES   REMARKS
ANGOLA *+      PTSUNNY   55  45  67 CALM      30.09R
AUBURN +       DRIZZLE   54  52  94 W5        30.09R
FORT WAYNE     CLOUDY    58  54  86 NW3       30.08S
HUNTINGTON +   DRIZZLE   57  55  92 CALM      30.09R

$$

INZ028-029-035-036-043>045-051>053-152300-
WEST CENTRAL INDIANA

CITY           SKY/WX    TMP DP  RH WIND       PRES   REMARKS
GREENCASTLE +  LGT RAIN  55  54  94 S8        30.05F
LAFAYETTE      CLOUDY    57  54  89 CALM      30.08R
TERRE HAUTE    TSTM      57  55  93 S6        30.07R VSB 1

$$

INZ030>032-037>040-046>048-054>057-064-065-152300-
CENTRAL INDIANA

CITY           SKY/WX    TMP DP  RH WIND       PRES   REMARKS
CP ATTERBURY + CLOUDY    61  54  77 S6        30.07R
COLUMBUS       MOSUNNY   59  57  94 S8        30.07S
FRANKFORT +    CLOUDY    57  57 100 CALM      30.08F
INDIANAPOLIS   RAIN      58  54  86 S9        30.08F FOG
-EAGLE CREEK   LGT RAIN  57  53  86 S3        30.08S
KOKOMO *+      CLOUDY    57  54  88 W3        30.08F
MARION +       CLOUDY    58  54  86 SW6       30.09S
MT COMFORT *+  CLOUDY    59  54  82 SW5       30.09F
SHELBYVILLE    CLOUDY    61  53  75 S5        30.06R
ZIONSVILLE +   LGT RAIN  58  52  82 CALM      30.08S

$$

INZ033-034-041-042-049-050-058-059-152300-
EAST CENTRAL INDIANA

CITY           SKY/WX    TMP DP  RH WIND       PRES   REMARKS
MUNCIE         CLOUDY    59  55  87 W5        30.08R

$$

INZ060-061-067>069-081>083-085>088-152300-
SOUTHWEST INDIANA

CITY           SKY/WX    TMP DP  RH WIND       PRES   REMARKS
EVANSVILLE     CLOUDY    75  56  51 S7        30.06F
WASHINGTON +   CLOUDY    68  56  66 S15       30.03F

$$

INZ062-063-066-070>080-084-089>092-152300-
SOUTH CENTRAL AND SOUTHEAST INDIANA

CITY           SKY/WX    TMP DP  RH WIND       PRES   REMARKS
BEDFORD +      CLOUDY    61  55  82 SE5       30.05
BLOOMINGTON    HVY RAIN  58  56  93 N6        30.10R FOG

$$



USA.gov is the U.S. government's official web portal to all federal, state and local government web resources and services.